Home > Time Zones > World Clock > Weather > Cuba > Havana > Past weeks

Flag for Cuba Weather past 2 weeks in Havana, Cuba

Now
90 °F

Partly sunny.


Feels Like: 93 °F
Forecast: N/A
Wind: 8 mph from Northeast

Location: Aeropuerto Jose Marti - Rancho-Boyeros - Habana

Current Time: Jul 30, 2015 at 7:23:44 PM

Latest Report: Jul 30, 2015 at 6:55 PM


Visibility: 6 mi

Pressure: 30.01 "Hg

Humidity: 49%

Dew point: 68 °F

Location of HavanaLocation

Historic Weather in Havana — Graph

°F

Havana temperature yesterday

Maximum temperature yesterday: 91 °F (at 1:55 PM)
Minimum temperature yesterday: 73 °F (at 3:55 AM)
Average temperature yesterday: 82 °F

Past Weeks' High & Low Weather Summary

 TemperatureHumidityPressure
High93 °F (Jul 23, 3:55 PM)94% (Jul 16, 4:55 AM)30.12 "Hg (Jul 16, 4:55 AM)
Low68 °F (Jul 18, 5:55 AM)38% (Jul 21, 11:55 AM)29.95 "Hg (Jul 26, 2:55 AM)
Average80 °F71%30.04 "Hg
* Reported Jul 15 5:01 PM — Jul 30 5:55 PM, Havana, Weather by CustomWeather, © 2015

Note: Actual official high and low records may vary slightly from our data, if they occured in-between our weather recording intervals... More about our weather records

Advertising

Havana weather history for previous 24 hours

 ConditionsComfort  
Time TempWeatherWind HumidityBarometerVisibility
5:55 PM
Thu, Jul 30
93 °FScattered clouds.5 mph47%29.98 "Hg6 mi
4:55 PM91 °FScattered clouds.8 mph49%30.01 "Hg6 mi
3:55 PM91 °FScattered clouds.10 mph49%30.01 "Hg6 mi
2:55 PM91 °FScattered clouds.3 mph46%30.04 "Hg6 mi
1:55 PM93 °FScattered clouds.3 mph47%30.04 "Hg6 mi
12:55 PM93 °FPassing clouds.3 mph47%30.07 "Hg6 mi
11:55 AM88 °FPassing clouds.2 mph55%30.07 "Hg6 mi
10:55 AM86 °FPassing clouds.5 mph59%30.07 "Hg6 mi
9:55 AM82 °FPartly sunny.5 mph70%30.07 "Hg6 mi
8:55 AM79 °FPartly sunny.3 mph84%30.07 "Hg6 mi
7:55 AM77 °FPassing clouds.5 mph83%30.04 "Hg6 mi
6:55 AM73 °FPassing clouds.3 mph89%30.04 "Hg5 mi
5:55 AM73 °FPassing clouds.3 mph94%30.04 "Hg5 mi
4:56 AM75 °FPassing clouds.2 mph89%30.01 "Hg3 mi
3:55 AM73 °FPassing clouds.1 mph89%30.04 "Hg3 mi
2:55 AM75 °FPassing clouds.1 mph89%30.04 "Hg3 mi
1:55 AM77 °FPassing clouds.2 mph83%30.04 "Hg5 mi
12:55 AM79 °FPassing clouds.3 mph84%30.07 "Hg5 mi
11:55 PM
Wed, Jul 29
79 °FPassing clouds.2 mph84%30.04 "Hg6 mi
10:55 PM81 °FPassing clouds.5 mph79%30.04 "Hg6 mi
9:55 PM81 °FPassing clouds.6 mph79%30.04 "Hg6 mi
8:55 PM81 °FScattered clouds.6 mph79%30.04 "Hg6 mi
7:55 PM86 °FScattered clouds.9 mph62%30.04 "Hg6 mi
Weather by CustomWeather, © 2015

See weather overviewHow to use our weather pages